Tracking 29091 objects as of 17-Jul-2024
HD Live streaming from Space Station
objects crossing your sky now

SL-8 DEB

Track SL-8 DEB now!
10-day predictions


NORAD ID: 20434
Int'l Code: 1990-004C
Perigee: 732.8 km
Apogee: 756.7 km
Inclination: 74.0 °
Period: 99.6 minutes
Semi major axis: 7115 km
RCS: 0.0078 m2 (small)
Launch date: January 18, 1990
Source: Commonwealth of Independent States (former USSR) (CIS)
Launch site: PLESETSK MISSILE AND SPACE COMPLEX (PKMTR)

Note: This is SATELLITE DEBRIS
Your satellite tracking list
Your tracking list is empty




NASA's NSSDC Master Catalog

Two Line Element Set (TLE):
1 20434U 90004C   24198.51954312  .00001876  00000-0  52943-3 0  9998
2 20434  74.0409 226.9433 0016812 306.7608 206.8934 14.46339110808703
Source of the keplerian elements: AFSPC